STARLINK-34191 (64176 NORAD) Tracking and Keplerian Element Data

This shows tracking and keplerian element data for the satellite.

Feedback or suggestion? Click here.




ElementValue
Catalog64176
NameSTARLINK-34191
Epoch Orbit3287
Epoch Day354.01938344
Epoch Year2025
RAAN100.7377
Inclination53.1606
Eccentricity0.0001523
Argument of Perigee76.5393
Mean Anonmoly283.5777
Mean Motion15.30257891
Decay Rate0.00032075
L11 64176U 25113G 25354.01938344 .00032075 00000+0 10884-2 0 9996
L22 64176 53.1606 100.7377 0001523 76.5393 283.5777 15.30257891 32876



Live tracking and technical data element details for STARLINK-34191 (NORAD 64176). STARLINK-34191 can be tracked NOW for your location showing map with azimuth and elevation plus other details from your city location.







IsCatalogInMostPopularTable: catalog: 64176, numindb: 3
Update: records affected: 1



GetName: 64176 STARLINK-34191

Hit Count: updated at: Mon, 09 Feb 2026 09:31:20 GMT